DateTimeUTC,F1_A11,F1_S11,BsB_S11,BsG_S11,BsR_S11,BbsB_S11,BbsG_S11,BbsR_S11,BaB_A11,BaG_A11,BaR_A11,Tu_S11,T_S11,Uu_S11,U_S11,P_S11,T1_A11
2021-04-26T07:00:00Z,00000200,21000000,,,,,,,0000.57,0000.33,0000.46,16.5,23.7,00.9,00.6,0685.3,31.0
2021-04-26T07:01:00Z,00000200,21000000,,,,,,,-000.25,0000.25,-000.04,16.5,23.7,00.9,00.6,0685.3,31.0
2021-04-26T07:02:00Z,00000200,21000000,,,,,,,0000.42,0000.01,0000.06,16.5,23.8,00.9,00.6,0685.3,31.0
2021-04-26T07:03:00Z,00000200,61000000,,,,,,,0000.06,0000.07,0000.24,16.5,23.8,00.9,00.6,0685.3,31.0
2021-04-26T07:04:00Z,00000200,41000000,0002.65,0001.52,0001.05,-000.05,0000.37,0000.29,0000.06,0000.04,0000.08,16.7,23.6,01.1,00.7,0686.2,31.0
2021-04-26T07:05:00Z,00000200,01000000,0002.70,0001.78,0001.04,0000.58,0000.28,0000.20,0000.31,0000.68,0000.41,16.8,23.6,00.9,00.6,0686.3,31.0
2021-04-26T07:06:00Z,00000200,01000000,0001.35,0001.11,0000.76,0000.30,0000.31,0000.26,0002.00,0001.63,0001.19,16.7,23.5,01.1,00.7,0686.3,31.0
2021-04-26T07:07:00Z,00000200,01000000,0001.72,0001.29,0000.82,0000.72,0000.29,-000.11,0000.74,0000.19,0000.55,16.7,23.5,01.3,00.9,0686.3,31.0
2021-04-26T07:08:00Z,00000200,01000000,0002.30,0001.82,0000.67,0000.21,0000.07,-000.02,0000.55,0000.65,0000.04,16.7,23.5,01.3,00.9,0686.3,31.0
2021-04-26T07:09:00Z,00000200,01000000,0001.92,0001.67,0000.90,0000.43,0000.06,0000.21,-000.21,-000.06,0000.01,16.7,23.5,01.3,00.8,0686.4,31.0
2021-04-26T07:10:00Z,00000200,01000000,0002.51,0001.72,0000.91,0000.39,0000.27,0000.15,-000.13,-000.64,-000.23,16.7,23.5,00.7,00.5,0686.4,31.0
2021-04-26T07:11:00Z,00000200,01000000,0002.00,0001.47,0000.63,0000.43,0000.23,0000.21,0000.22,0000.60,0000.24,16.6,23.5,00.4,00.3,0686.4,31.0
2021-04-26T07:12:00Z,00000200,01000000,0002.30,0001.59,0000.97,0000.08,0000.42,0000.23,0000.20,0000.43,-000.00,16.6,23.4,00.4,00.2,0686.4,31.0
2021-04-26T07:13:00Z,00000200,01000000,0002.72,0001.54,0001.10,0000.29,0000.19,0000.19,0000.24,0000.18,0000.19,16.6,23.4,00.3,00.2,0686.4,31.0
2021-04-26T07:14:00Z,00000200,01000000,0001.77,0001.64,0001.25,0000.32,0000.20,0000.51,0001.03,0000.75,0000.76,16.6,23.4,00.2,00.1,0686.4,31.0
2021-04-26T07:15:00Z,00000200,01000000,0001.98,0001.65,0000.87,0000.18,0000.74,0000.19,0000.78,0000.82,0000.71,16.7,23.4,00.2,00.1,0686.4,31.0
2021-04-26T07:16:00Z,00000200,01000000,0001.68,0001.61,0001.10,-000.07,-000.05,0000.23,0000.81,0000.69,0000.50,16.7,23.5,00.2,00.2,0686.4,31.0
2021-04-26T07:17:00Z,00000200,01000000,0002.32,0001.64,0000.97,0000.92,0000.41,0000.18,0000.31,0000.16,0000.06,16.8,23.5,00.2,00.1,0686.4,31.0
2021-04-26T07:18:00Z,00000200,01000000,0002.64,0001.68,0000.96,0000.50,0000.34,0000.35,0000.88,0000.87,0000.59,16.8,23.5,00.1,00.1,0686.4,31.0
2021-04-26T07:19:00Z,00000200,01000000,0001.94,0001.69,0000.88,0000.72,0000.38,0000.28,0000.39,0000.81,0000.51,16.8,23.5,00.1,00.1,0686.3,31.0
2021-04-26T07:20:00Z,00000200,01000000,0001.82,0001.68,0000.69,0000.75,0000.14,0000.14,0001.96,0001.74,0001.24,16.8,23.5,00.3,00.2,0686.3,31.0
2021-04-26T07:21:00Z,00000200,01000000,0002.71,0001.31,0000.57,0000.08,0000.12,0000.06,0001.19,0000.74,0000.79,16.8,23.5,00.5,00.3,0686.3,31.0
2021-04-26T07:22:00Z,00000200,01000000,0002.00,0001.44,0000.83,0000.79,0000.27,0000.17,0000.81,0000.73,0000.43,16.8,23.5,00.6,00.4,0686.3,31.0
2021-04-26T07:23:00Z,00000200,01000000,0002.25,0001.26,0001.17,0000.33,0000.26,0000.44,0000.80,0000.57,0000.28,16.7,23.5,00.6,00.4,0686.3,31.0
2021-04-26T07:24:00Z,00000200,01000000,0001.52,0001.50,0000.91,0000.33,0000.27,0000.07,0000.80,0000.86,0000.69,16.7,23.5,00.6,00.4,0686.3,31.0
2021-04-26T07:25:00Z,00000200,01000000,0002.59,0001.54,0001.06,0000.02,0000.48,0000.52,0000.56,0000.41,0000.75,16.7,23.5,00.7,00.4,0686.3,31.0
2021-04-26T07:26:00Z,00000200,01000000,0002.44,0001.48,0000.97,0000.09,0000.32,0000.07,0000.37,0000.54,-000.08,16.7,23.5,00.6,00.4,0686.3,31.0
2021-04-26T07:27:00Z,00000200,01000000,0001.54,0001.65,0000.75,0000.62,0000.29,0000.15,0000.23,-000.36,0000.23,16.7,23.5,00.5,00.3,0686.4,31.0
2021-04-26T07:28:00Z,00000200,01000000,0001.79,0001.43,0000.94,0001.07,0000.16,0000.35,0000.23,0000.74,0000.26,16.7,23.4,00.3,00.2,0686.4,31.0
2021-04-26T07:29:00Z,00000200,01000000,0002.33,0001.48,0000.92,0000.70,0000.35,0000.18,0000.13,0000.02,-000.27,16.7,23.5,00.2,00.1,0686.4,31.0
2021-04-26T07:30:00Z,00000200,01000000,0002.59,0001.37,0001.16,0000.03,0000.15,0000.27,0000.78,0000.30,0000.51,16.7,23.5,00.1,00.1,0686.3,31.0
2021-04-26T07:31:00Z,00000200,01000000,0002.40,0001.55,0000.83,-000.18,0000.19,-000.03,0000.13,0000.37,0000.34,16.8,23.5,00.1,00.1,0686.3,31.0
2021-04-26T07:32:00Z,00000200,01000000,0001.87,0001.72,0000.84,-000.33,0000.23,0000.08,0000.64,0000.98,0000.64,16.9,23.5,00.1,00.0,0686.3,31.0
2021-04-26T07:33:00Z,00000200,01000000,0002.23,0001.54,0000.61,0000.58,0000.17,0000.07,0000.71,0000.21,0000.17,16.9,23.6,00.0,00.0,0686.3,31.0
2021-04-26T07:34:00Z,00000200,01000000,0002.20,0001.59,0000.77,0000.37,0000.31,0000.25,0000.45,0000.72,0000.45,16.9,23.6,00.0,00.0,0686.3,31.0
2021-04-26T07:35:00Z,00000200,01000000,0002.08,0001.35,0000.44,0000.03,0000.31,-000.05,0000.70,0000.30,0000.43,16.9,23.6,00.1,00.1,0686.3,31.0
2021-04-26T07:36:00Z,00000200,01000000,0001.56,0001.33,0000.70,0000.53,0000.58,0000.02,0000.82,0000.85,0000.11,16.9,23.6,00.1,00.0,0686.3,31.0
2021-04-26T07:37:00Z,00000200,01000000,0002.62,0001.68,0000.86,0000.41,0000.15,0000.02,0000.53,0000.45,0000.71,16.8,23.5,00.1,00.1,0686.3,31.0
2021-04-26T07:38:00Z,00000200,01000000,0002.60,0001.40,0000.92,0000.25,0000.12,-000.01,0001.00,0000.63,0000.29,16.8,23.5,00.1,00.0,0686.3,31.0
2021-04-26T07:39:00Z,00000200,01000000,0002.53,0001.38,0000.84,0000.30,0000.37,0000.17,0000.84,0000.85,0000.91,16.8,23.5,00.1,00.0,0686.3,31.0
2021-04-26T07:40:00Z,00000200,01000000,0001.57,0001.76,0000.87,-000.12,0000.18,0000.32,0000.70,0000.87,0000.45,16.8,23.5,00.1,00.1,0686.4,31.0
2021-04-26T07:41:00Z,00000200,01000000,0002.36,0001.45,0000.55,0000.47,-000.15,0000.07,0000.63,0000.67,0000.52,16.7,23.5,00.2,00.1,0686.4,31.0
2021-04-26T07:42:00Z,00000200,01000000,0002.07,0001.24,0000.96,0000.22,0000.21,0000.23,0001.74,0001.18,0001.07,16.7,23.5,00.2,00.1,0686.3,31.0
2021-04-26T07:43:00Z,00000200,01000000,0002.20,0001.47,0000.74,0000.43,0000.15,0000.05,0000.80,0000.97,0000.64,16.7,23.5,00.3,00.2,0686.3,31.0
2021-04-26T07:44:00Z,00000200,01000000,0002.08,0001.36,0000.77,0000.38,0000.40,0000.28,0001.30,0000.94,0001.04,16.7,23.5,00.5,00.3,0686.3,31.0
2021-04-26T07:45:00Z,00000200,01000000,0002.28,0001.42,0000.63,0000.52,0000.41,-000.17,0000.47,0000.47,-000.10,16.8,23.5,00.5,00.3,0686.3,31.0
2021-04-26T07:46:00Z,00000200,01000000,0002.48,0001.27,0000.92,0000.47,0000.50,0000.30,0000.15,0000.41,0000.32,16.8,23.5,00.5,00.3,0686.2,31.0
2021-04-26T07:47:00Z,00000200,01000000,0001.27,0001.92,0000.48,0000.44,0000.19,0000.06,0000.31,0000.17,0000.21,16.9,23.5,00.4,00.3,0686.2,31.0
2021-04-26T07:48:00Z,00000200,01000000,0001.32,0001.27,0000.86,-000.12,0000.39,0000.07,0000.19,0000.16,-000.02,16.9,23.5,00.3,00.2,0686.2,31.0
2021-04-26T07:49:00Z,00000200,01000000,0002.52,0001.39,0000.54,0000.74,0000.21,-000.24,0000.40,0000.01,0000.30,16.8,23.5,00.2,00.1,0686.2,31.0
2021-04-26T07:50:00Z,00000200,01000000,0001.52,0001.23,0000.56,0000.07,0000.23,0000.10,0000.04,0000.43,-000.17,16.8,23.5,00.1,00.1,0686.2,31.0
2021-04-26T07:51:00Z,00000200,01000000,0002.40,0001.58,0000.78,0000.36,0000.22,0000.19,0000.53,0000.49,0000.66,16.8,23.5,00.1,00.1,0686.2,31.0
2021-04-26T07:52:00Z,00000200,01000000,0002.24,0001.36,0000.86,0000.71,0000.14,0000.27,0000.55,0000.11,0000.41,16.7,23.5,00.0,00.0,0686.2,31.0
2021-04-26T07:53:00Z,00000200,01000000,0002.65,0001.61,0000.77,0000.56,0000.43,0000.18,0000.56,0000.74,0000.06,16.7,23.5,00.1,00.1,0686.2,31.0
2021-04-26T07:54:00Z,00000200,01000000,0002.04,0001.70,0000.96,0000.11,0000.22,0000.37,0000.18,0000.21,0000.26,16.7,23.5,00.0,00.0,0686.3,31.0
2021-04-26T07:55:00Z,00000200,01000000,0002.02,0001.42,0000.93,0000.14,0000.08,-000.04,0000.59,0000.58,0000.04,16.7,23.5,00.0,00.0,0686.3,31.0
2021-04-26T07:56:00Z,00000200,01000000,0001.83,0001.63,0000.74,0000.75,0000.38,-000.00,0001.20,0000.80,0000.84,16.7,23.4,00.0,00.0,0686.3,31.0
2021-04-26T07:57:00Z,00000200,41000000,,,,,,,0001.52,0001.45,0001.24,16.7,23.5,,00.0,0686.3,31.0
2021-04-26T07:58:00Z,00000200,61000000,,,,,,,-000.36,-000.39,-000.02,16.4,23.6,,00.0,0685.3,31.0
2021-04-26T07:59:00Z,00000200,21000000,,,,,,,-000.56,-000.47,-000.69,16.4,23.7,,00.0,0685.2,31.0
